SL-19 DEB, 23492

Orbit data source: Space-Track

SL-19 DEB, 23492 is space debris in LEO originally from a launch on Mon, 26 Dec 1994 UTC launched from the Tyuratam Missile And Space Complex (TTMTR). Debris objects in space refer to the collection of defunct objects orbiting the Earth. Examples of debris include non-operational satellites, rocket bodies, and fragments generated from explosions, collisions, or faulty payload assembly.

Loading next visibility...
Identifier
23492, 1994-085Q
Orbit
LEO
Country
Flag of CISCIS
Related business
Manufacturer
Unknown
Mission
Spacecraft
Bus & Motor
Unknown
Mass
Unknown
Launch date (UTC)
1994-12-26 (31 years ago)
Launch vehicle
Unknown
Launch site
Tyuratam Missile And Space Complex (TTMTR)
Object type
Payload
Rocket body
Debris
Shape & HBR
Unknown shape, 0.1 m
Radar Cross Section
Small (<0.1 m²)

Expand to show TLE details & history
Last TLE update: 1 day ago

TLE from 1 day ago
0 SL-19 DEB
1 23492U 94085Q   26061.43596640 -.00000023  00000-0  53639-3 0  9993
2 23492  64.9491  71.7444 0174868 185.2483 325.5249 11.31175699287265
Epoch: 2026-03-02T10:27Z
TLE epoch observation values (Epoch: 2026-03-02T10:27:47.496Z)
Latitude
27.3206°
Longitude
-79.33811°
Altitude
1,886.709 km
Speed
6.998 km/s
True Right ascension
15h 51m 21s
True Declination
27° 11' 59"
Sunlit
Object was in daylight at epoch
Visualization orbit readout
Latitude
Unknown
Longitude
Unknown
Altitude
Unknown
Speed
Unknown
Apparent Right ascension
Unknown
Apparent Declination
Unknown
Sunlit
N/A
Visualization observer readout
Local Sidereal Time
23:34:06
Azimuth
Unknown
Elevation
Unknown
Doppler factor
Unknown
Orbital elements
Apogee altitude
2,149.877 km
Perigee altitude
1,856.748 km
Semi-major axis
8,381.45 km
Eccentricity
0.01749
Inclination
64.9491°
RAAN
71.7444°
Arg. of periapsis
185.2483°
True anomaly
324.36991°
Mean anomaly
325.5249°
Eccentric anomaly
324.9495°
Mean motion
2.82855 °/min
Orbital period
127.27 mins
BSTAR
0.00053639
Loading maneuver chart data...
Computing Atmospheric mass density...
Loading historical data...
Loading historical data...
Loading historical data...
Loading historical data...
Loading historical data...
Loading historical data...
Loading historical data...

Documentation

Showing up to 5 results
|